This is the latest recevied weather packets stored in our database for station/object K4ZZR. If no packets are shown the sender has not sent any weather packets the latest 10 day(s).
| Time | Temp. | Humidity | Pressure | Rain* | Wind** | Luminosity | Snow |
|---|---|---|---|---|---|---|---|
| 1778154625 | 23.89° C | 89% | 1016.4 hPa | 0 mm | - | 103 W/m² | - |
| 1778154320 | 22.78° C | 91% | 1016.3 hPa | 0 mm | - | 92 W/m² | - |
| 1778154018 | 22.78° C | 92% | 1016.1 hPa | 0 mm | - | 84 W/m² | - |
| 1778153715 | 22.22° C | 93% | 1016.2 hPa | 0 mm | - | 77 W/m² | - |
| 1778153412 | 22.22° C | 94% | 1016.3 hPa | 0 mm | - | 70 W/m² | - |
| 1778153110 | 21.67° C | 95% | 1016.3 hPa | 0 mm | - | 63 W/m² | - |
| 1778152807 | 21.11° C | 96% | 1016.4 hPa | 0 mm | - | 57 W/m² | - |
| 1778152504 | 21.11° C | 97% | 1016.2 hPa | 0 mm | - | 48 W/m² | - |
| 1778152200 | 20.56° C | 97% | 1016.3 hPa | 0 mm | - | 39 W/m² | - |
| 1778151896 | 20.56° C | 98% | 1016 hPa | 0 mm | - | 25 W/m² | - |
| 1778151593 | 20.56° C | 98% | 1015.9 hPa | 0 mm | - | 20 W/m² | - |
| 1778151289 | 20.56° C | 98% | 1015.9 hPa | 0 mm | - | 16 W/m² | - |
| 1778150986 | 20.56° C | 98% | 1015.8 hPa | 0 mm | - | 12 W/m² | - |
| 1778150684 | 20.56° C | 98% | 1015.7 hPa | 0 mm | - | 7 W/m² | - |
| 1778150379 | 20.56° C | 98% | 1015.3 hPa | 0 mm | - | 4 W/m² | - |
| 1778150076 | 20.56° C | 98% | 1015.5 hPa | 0 mm | - | 2 W/m² | - |
| 1778149772 | 20.56° C | 98% | 1015.3 hPa | 0 mm | - | 1 W/m² | - |
| 1778149469 | 21.11° C | 98% | 1015.1 hPa | 0 mm | - | 0 W/m² | - |
| 1778149165 | 20.56° C | 98% | 1015.1 hPa | 0 mm | - | 0 W/m² | - |
| 1778148860 | 20.56° C | 98% | 1014.9 hPa | 0 mm | - | 0 W/m² | - |
| 1778148557 | 20.56° C | 97% | 1014.9 hPa | 0 mm | - | 0 W/m² | - |
| 1778148255 | 21.11° C | 97% | 1014.5 hPa | 0 mm | - | 0 W/m² | - |
| 1778147953 | 21.11° C | 97% | 1014.4 hPa | 0 mm | - | 0 W/m² | - |
| 1778147650 | 21.11° C | 97% | 1014.4 hPa | 0 mm | - | 0 W/m² | - |
| 1778147347 | 21.11° C | 98% | 1014.5 hPa | 0 mm | - | 0 W/m² | - |
* Rain latest hour (hover to see other rain measurements)
** Current wind speed in m/s (hover to see current wind gust speed)